User: anonymous   Login
Location: Caltech
(34.1382°N, 118.1253°W)
Time: 22:22:55
(UTC-07:00)
Language:

Cosmos 2251 Rocket - Orbit

View from above orbital plane
View from above orbital plane
View from above satellite
View from above satellite

Ground track
Ground track

The orbit data is extracted from the following two-line orbital elements,

1 22676U 93036B   17179.56859530 +.00000043 +00000-0 +24567-4 0  9995
2 22676 074.0409 161.0561 0019071 189.1197 170.9611 14.33927767256695
Epoch (UTC): 28 June 2017 13:38:46
Eccentricity: 0.0019071
inclination: 74.0409°
perigee height: 765 km
apogee height: 792 km
right ascension of ascending node: 161.0561°
argument of perigee: 189.1197°
revolutions per day: 14.33927767
mean anomaly at epoch: 170.9611°
orbit number at epoch: 25669

The dashed part of the orbit path shows where the satellite is in the earth's shadow,  

DLR